Time,TemperatureF,DewpointF,PressureIn,WindDirection,WindDirectionDegrees,WindSpeedMPH,WindSpeedGustMPH,Humidity,HourlyPrecipIn,Conditions,Clouds,dailyrainin,SoftwareType,DateUTC
2013-05-16 00:00:00,49.1,44.8,29.66,ESE,115,0.0,0.0,85,0.00,RA,RA,0.00,WeatherDisplay:10.37,2013-05-16 04:00:00,
2013-05-16 00:10:00,48.9,44.6,29.66,SE,127,0.0,0.0,85,0.00,,,0.00,WeatherDisplay:10.37,2013-05-16 04:10:00,
2013-05-16 00:20:00,48.7,44.7,29.66,SSE,148,0.0,0.0,86,0.00,,,0.00,WeatherDisplay:10.37,2013-05-16 04:20:00,
2013-05-16 00:30:00,48.7,44.4,29.66,South,171,0.0,0.0,85,0.00,,,0.00,WeatherDisplay:10.37,2013-05-16 04:30:00,
2013-05-16 00:40:00,48.6,44.3,29.65,ESE,120,0.0,0.0,85,0.00,,,0.00,WeatherDisplay:10.37,2013-05-16 04:40:00,
2013-05-16 00:50:00,48.4,44.1,29.65,ESE,105,0.0,0.0,85,0.00,,,0.00,WeatherDisplay:10.37,2013-05-16 04:50:00,
2013-05-16 01:00:00,48.2,43.9,29.65,ESE,105,0.0,0.0,85,0.00,,,0.00,WeatherDisplay:10.37,2013-05-16 05:00:00,
2013-05-16 01:10:00,47.8,43.8,29.65,SE,128,0.0,0.0,86,0.00,,,0.00,WeatherDisplay:10.37,2013-05-16 05:10:00,
2013-05-16 01:20:00,47.7,43.7,29.65,SE,128,0.0,0.0,86,0.00,,,0.00,WeatherDisplay:10.37,2013-05-16 05:20:00,
2013-05-16 01:30:00,47.3,43.3,29.65,SE,128,0.0,0.0,86,0.00,,,0.00,WeatherDisplay:10.37,2013-05-16 05:30:00,
2013-05-16 01:40:00,47.1,43.1,29.65,SE,128,0.0,0.0,86,0.00,,,0.00,WeatherDisplay:10.37,2013-05-16 05:40:00,
2013-05-16 01:50:00,46.8,42.8,29.65,SE,128,0.0,0.0,86,0.00,,,0.00,WeatherDisplay:10.37,2013-05-16 05:50:00,
2013-05-16 02:00:00,46.4,42.4,29.65,SE,128,0.0,0.0,86,0.00,,,0.00,WeatherDisplay:10.37,2013-05-16 06:00:00,
2013-05-16 02:10:00,46.2,42.3,29.65,SE,128,0.0,0.0,86,0.00,,,0.00,WeatherDisplay:10.37,2013-05-16 06:10:00,
2013-05-16 02:20:00,46.0,42.1,29.64,SE,128,0.0,0.0,86,0.00,,,0.00,WeatherDisplay:10.37,2013-05-16 06:20:00,
2013-05-16 02:30:00,45.9,41.9,29.65,SE,128,0.0,0.0,86,0.00,,,0.00,WeatherDisplay:10.37,2013-05-16 06:30:00,
2013-05-16 02:40:00,45.7,41.7,29.65,SE,128,0.0,0.0,86,0.00,,,0.00,WeatherDisplay:10.37,2013-05-16 06:40:00,
2013-05-16 02:50:00,45.5,41.5,29.65,SE,128,0.0,0.0,86,0.00,,,0.00,WeatherDisplay:10.37,2013-05-16 06:50:00,
2013-05-16 03:00:00,45.1,41.2,29.65,SE,146,0.0,0.0,86,0.00,,,0.00,WeatherDisplay:10.37,2013-05-16 07:00:00,
2013-05-16 03:10:00,45.0,41.0,29.64,SSE,150,0.0,0.0,86,0.00,,,0.00,WeatherDisplay:10.37,2013-05-16 07:10:00,
2013-05-16 03:20:00,44.7,40.8,29.64,SSE,150,0.0,0.0,86,0.00,,,0.00,WeatherDisplay:10.37,2013-05-16 07:20:00,
2013-05-16 03:30:00,44.6,40.7,29.64,SSE,150,0.0,0.0,86,0.00,,,0.00,WeatherDisplay:10.37,2013-05-16 07:30:00,
2013-05-16 03:40:00,44.6,40.7,29.64,SSE,150,0.0,0.0,86,0.00,,,0.00,WeatherDisplay:10.37,2013-05-16 07:40:00,
2013-05-16 03:50:00,44.2,40.3,29.64,SSE,150,0.0,0.0,86,0.00,,,0.00,WeatherDisplay:10.37,2013-05-16 07:50:00,
2013-05-16 04:00:00,44.2,40.3,29.64,SSE,150,0.0,0.0,86,0.00,,,0.00,WeatherDisplay:10.37,2013-05-16 08:00:00,
2013-05-16 04:10:00,44.2,40.3,29.64,SSE,150,0.0,0.0,86,0.00,,,0.00,WeatherDisplay:10.37,2013-05-16 08:10:00,
2013-05-16 04:20:00,44.1,40.1,29.64,SSE,150,0.0,0.0,86,0.00,,,0.00,WeatherDisplay:10.37,2013-05-16 08:20:00,
2013-05-16 04:30:00,43.7,39.8,29.63,SSE,150,0.0,0.0,86,0.00,,,0.00,WeatherDisplay:10.37,2013-05-16 08:30:00,
2013-05-16 04:40:00,43.7,40.1,29.63,SSE,150,0.0,0.0,87,0.00,,,0.00,WeatherDisplay:10.37,2013-05-16 08:40:00,
2013-05-16 04:50:00,43.7,40.1,29.64,SSE,150,0.0,0.0,87,0.00,,,0.00,WeatherDisplay:10.37,2013-05-16 08:50:00,
2013-05-16 05:00:00,43.7,40.1,29.64,SSE,150,0.0,0.0,87,0.00,,,0.00,WeatherDisplay:10.37,2013-05-16 09:00:00,
2013-05-16 05:10:00,43.7,40.1,29.64,SSE,150,0.0,0.0,87,0.00,,,0.00,WeatherDisplay:10.37,2013-05-16 09:10:00,
2013-05-16 05:20:00,43.5,39.9,29.64,SSE,150,0.0,0.0,87,0.00,,,0.00,WeatherDisplay:10.37,2013-05-16 09:20:00,
2013-05-16 05:30:00,43.5,39.9,29.64,SSE,150,0.0,0.0,87,0.00,,,0.00,WeatherDisplay:10.37,2013-05-16 09:30:00,
2013-05-16 05:40:00,43.5,39.9,29.65,SSE,150,0.0,0.0,87,0.00,,,0.00,WeatherDisplay:10.37,2013-05-16 09:40:00,
2013-05-16 05:50:00,43.3,39.7,29.65,SSE,150,0.0,0.0,87,0.00,,,0.00,WeatherDisplay:10.37,2013-05-16 09:50:00,
2013-05-16 06:00:00,43.3,39.7,29.66,SSE,150,0.0,0.0,87,0.00,,,0.00,WeatherDisplay:10.37,2013-05-16 10:00:00,
2013-05-16 06:10:00,43.5,39.9,29.66,SSE,150,0.0,0.0,87,0.00,,,0.00,WeatherDisplay:10.37,2013-05-16 10:10:00,
2013-05-16 06:20:00,43.7,40.1,29.65,SSE,150,0.0,0.0,87,0.00,,,0.00,WeatherDisplay:10.37,2013-05-16 10:20:00,
2013-05-16 06:30:00,44.1,40.4,29.66,SSE,150,0.0,0.0,87,0.00,,,0.00,WeatherDisplay:10.37,2013-05-16 10:30:00,
2013-05-16 06:40:00,44.1,40.4,29.66,SSE,150,0.0,0.0,87,0.00,,,0.00,WeatherDisplay:10.37,2013-05-16 10:40:00,
2013-05-16 06:50:00,44.6,41.0,29.67,SSE,150,0.0,0.0,87,0.00,,,0.00,WeatherDisplay:10.37,2013-05-16 10:50:00,
2013-05-16 07:00:00,46.8,43.4,29.67,SSE,150,0.0,0.0,88,0.00,,,0.00,WeatherDisplay:10.37,2013-05-16 11:00:00,
2013-05-16 07:10:00,51.0,47.2,29.67,SSE,150,0.0,0.0,87,0.00,,,0.00,WeatherDisplay:10.37,2013-05-16 11:10:00,
2013-05-16 07:20:00,54.0,49.9,29.68,SSE,150,0.0,0.0,86,0.00,,,0.00,WeatherDisplay:10.37,2013-05-16 11:20:00,
2013-05-16 07:30:00,55.2,50.4,29.68,SE,141,0.0,0.0,84,0.00,,,0.00,WeatherDisplay:10.37,2013-05-16 11:30:00,
2013-05-16 07:40:00,55.4,50.3,29.69,SE,128,0.0,0.0,83,0.00,,,0.00,WeatherDisplay:10.37,2013-05-16 11:40:00,
2013-05-16 07:50:00,54.3,48.9,29.69,SE,128,0.0,0.0,82,0.00,,,0.00,WeatherDisplay:10.37,2013-05-16 11:50:00,
2013-05-16 08:00:00,53.8,48.4,29.69,SSE,148,0.0,0.0,82,0.00,,,0.00,WeatherDisplay:10.37,2013-05-16 12:00:00,
2013-05-16 08:10:00,53.7,48.0,29.69,SSE,148,0.0,0.0,81,0.00,,,0.00,WeatherDisplay:10.37,2013-05-16 12:10:00,
2013-05-16 08:20:00,54.0,48.3,29.69,SE,139,0.0,0.0,81,0.00,,,0.00,WeatherDisplay:10.37,2013-05-16 12:20:00,
2013-05-16 08:30:00,54.3,48.6,29.68,ESE,120,0.0,0.0,81,0.00,,,0.00,WeatherDisplay:10.37,2013-05-16 12:30:00,
2013-05-16 08:40:00,54.9,48.8,29.69,SE,142,2.0,0.0,80,0.00,,,0.00,WeatherDisplay:10.37,2013-05-16 12:40:00,
2013-05-16 08:50:00,55.4,49.0,29.69,SSE,152,0.0,0.0,79,0.00,,,0.00,WeatherDisplay:10.37,2013-05-16 12:50:00,
2013-05-16 09:00:00,56.1,49.4,29.69,SE,129,5.0,0.0,78,0.00,,,0.00,WeatherDisplay:10.37,2013-05-16 13:00:00,
2013-05-16 09:10:00,56.7,49.2,29.70,SSE,156,0.0,0.0,76,0.00,,,0.00,WeatherDisplay:10.37,2013-05-16 13:10:00,
2013-05-16 09:20:00,56.8,49.0,29.70,SE,132,0.0,0.0,75,0.00,,,0.00,WeatherDisplay:10.37,2013-05-16 13:20:00,
2013-05-16 09:30:00,57.2,48.6,29.70,SSE,149,5.0,0.0,73,0.00,,,0.00,WeatherDisplay:10.37,2013-05-16 13:30:00,
2013-05-16 09:40:00,58.0,48.6,29.69,SE,146,2.0,0.0,71,0.00,,,0.00,WeatherDisplay:10.37,2013-05-16 13:40:00,
2013-05-16 09:50:00,58.6,48.9,29.69,SSE,163,2.0,0.0,70,0.00,,,0.00,WeatherDisplay:10.37,2013-05-16 13:50:00,
2013-05-16 10:00:00,59.4,48.8,29.70,SSE,160,2.0,0.0,68,0.00,,,0.00,WeatherDisplay:10.37,2013-05-16 14:00:00,
2013-05-16 10:10:00,59.9,48.9,29.70,SE,130,3.0,0.0,67,0.00,,,0.00,WeatherDisplay:10.37,2013-05-16 14:10:00,
2013-05-16 10:20:00,60.4,49.0,29.70,SE,134,3.0,0.0,66,0.00,,,0.00,WeatherDisplay:10.37,2013-05-16 14:20:00,
2013-05-16 10:30:00,61.0,48.3,29.69,SSE,165,1.0,0.0,63,0.00,,,0.00,WeatherDisplay:10.37,2013-05-16 14:30:00,
2013-05-16 10:40:00,61.3,48.6,29.69,SE,146,2.0,0.0,63,0.00,,,0.00,WeatherDisplay:10.37,2013-05-16 14:40:00,
2013-05-16 10:50:00,61.7,48.1,29.69,SSE,150,3.0,0.0,61,0.00,,,0.00,WeatherDisplay:10.37,2013-05-16 14:50:00,
2013-05-16 10:59:00,62.2,46.8,29.69,SSE,161,0.0,0.0,57,0.00,,,0.00,WeatherDisplay:10.37,2013-05-16 14:59:00,
2013-05-16 11:10:00,62.7,46.7,29.69,SE,129,2.0,0.0,56,0.00,,,0.00,WeatherDisplay:10.37,2013-05-16 15:10:00,
2013-05-16 11:20:00,63.5,46.0,29.69,SSE,149,2.0,0.0,53,0.00,,,0.00,WeatherDisplay:10.37,2013-05-16 15:20:00,
2013-05-16 11:30:00,64.0,46.5,29.69,South,170,2.0,0.0,53,0.00,,,0.00,WeatherDisplay:10.37,2013-05-16 15:30:00,
2013-05-16 11:40:00,64.1,45.6,29.69,SSE,160,2.0,0.0,51,0.00,,,0.00,WeatherDisplay:10.37,2013-05-16 15:40:00,
2013-05-16 11:50:00,64.8,46.7,29.69,SE,140,3.0,0.0,52,0.00,,,0.00,WeatherDisplay:10.37,2013-05-16 15:50:00,
2013-05-16 12:00:00,65.3,46.7,29.69,SE,133,0.0,0.0,51,0.00,,,0.00,WeatherDisplay:10.37,2013-05-16 16:00:00,
2013-05-16 12:10:00,65.7,45.4,29.68,SSE,166,1.0,0.0,48,0.00,,,0.00,WeatherDisplay:10.37,2013-05-16 16:10:00,
2013-05-16 12:20:00,65.8,45.6,29.68,SSE,152,2.0,0.0,48,0.00,,,0.00,WeatherDisplay:10.37,2013-05-16 16:20:00,
2013-05-16 12:30:00,66.1,44.7,29.68,SE,139,0.0,0.0,46,0.00,,,0.00,WeatherDisplay:10.37,2013-05-16 16:30:00,
2013-05-16 12:40:00,66.5,44.5,29.67,SSW,208,2.0,0.0,45,0.00,,,0.00,WeatherDisplay:10.37,2013-05-16 16:40:00,
2013-05-16 12:50:00,67.1,46.2,29.67,ESE,117,1.0,0.0,47,0.00,,,0.00,WeatherDisplay:10.37,2013-05-16 16:50:00,
2013-05-16 12:59:00,67.6,44.9,29.67,SSE,162,1.0,0.0,44,0.00,,,0.00,WeatherDisplay:10.37,2013-05-16 16:59:00,
2013-05-16 13:10:00,67.8,45.7,29.67,SE,130,5.0,0.0,45,0.00,,,0.00,WeatherDisplay:10.37,2013-05-16 17:10:00,
2013-05-16 13:20:00,68.0,45.9,29.66,SSE,150,7.0,0.0,45,0.00,,,0.00,WeatherDisplay:10.37,2013-05-16 17:20:00,
2013-05-16 13:30:00,67.8,44.5,29.66,SSE,164,6.0,0.0,43,0.00,,,0.00,WeatherDisplay:10.37,2013-05-16 17:30:00,
2013-05-16 13:40:00,68.1,45.4,29.66,South,180,2.0,0.0,44,0.00,,,0.00,WeatherDisplay:10.37,2013-05-16 17:40:00,
2013-05-16 13:50:00,68.4,43.7,29.66,SE,137,14.0,0.0,41,0.00,,,0.00,WeatherDisplay:10.37,2013-05-16 17:50:00,
2013-05-16 14:00:00,68.5,44.5,29.66,SE,133,8.0,0.0,42,0.00,,,0.00,WeatherDisplay:10.37,2013-05-16 18:00:00,
2013-05-16 14:10:00,68.9,44.9,29.66,SE,131,7.0,0.0,42,0.00,,,0.00,WeatherDisplay:10.37,2013-05-16 18:10:00,
2013-05-16 14:20:00,69.3,45.8,29.66,ESE,118,2.0,0.0,43,0.00,,,0.00,WeatherDisplay:10.37,2013-05-16 18:20:00,
2013-05-16 14:30:00,69.4,44.7,29.66,SE,128,12.0,0.0,41,0.00,,,0.00,WeatherDisplay:10.37,2013-05-16 18:30:00,
2013-05-16 14:40:00,69.4,44.7,29.66,SE,129,6.0,0.0,41,0.00,,,0.00,WeatherDisplay:10.37,2013-05-16 18:40:00,
2013-05-16 14:50:00,69.8,44.4,29.66,SE,129,3.0,0.0,40,0.00,,,0.00,WeatherDisplay:10.37,2013-05-16 18:50:00,
2013-05-16 15:00:00,70.2,44.7,29.66,SE,127,1.0,0.0,40,0.00,,,0.00,WeatherDisplay:10.37,2013-05-16 19:00:00,
2013-05-16 15:10:00,70.2,44.7,29.66,SE,134,1.0,0.0,40,0.00,,,0.00,WeatherDisplay:10.37,2013-05-16 19:10:00,
2013-05-16 15:20:00,70.3,44.9,29.66,SE,135,6.0,0.0,40,0.00,,,0.00,WeatherDisplay:10.37,2013-05-16 19:20:00,
2013-05-16 15:30:00,70.7,43.8,29.66,SSE,153,9.0,0.0,38,0.00,,,0.00,WeatherDisplay:10.37,2013-05-16 19:30:00,
2013-05-16 15:40:00,70.5,45.0,29.66,SE,129,1.0,0.0,40,0.00,,,0.00,WeatherDisplay:10.37,2013-05-16 19:40:00,
2013-05-16 15:50:00,70.3,44.2,29.66,SSE,162,8.0,0.0,39,0.00,,,0.00,WeatherDisplay:10.37,2013-05-16 19:50:00,
2013-05-16 16:00:00,70.3,44.2,29.66,SE,144,7.0,0.0,39,0.00,,,0.00,WeatherDisplay:10.37,2013-05-16 20:00:00,
2013-05-16 16:10:00,70.2,44.1,29.66,SE,140,3.0,0.0,39,0.00,,,0.00,WeatherDisplay:10.37,2013-05-16 20:10:00,
2013-05-16 16:20:00,70.3,44.2,29.66,SE,135,6.0,0.0,39,0.00,,,0.00,WeatherDisplay:10.37,2013-05-16 20:20:00,
2013-05-16 16:30:00,70.3,43.5,29.65,SE,132,3.0,0.0,38,0.00,,,0.00,WeatherDisplay:10.37,2013-05-16 20:30:00,
2013-05-16 16:40:00,70.0,43.9,29.66,SE,140,7.0,0.0,39,0.00,,,0.00,WeatherDisplay:10.37,2013-05-16 20:40:00,
2013-05-16 16:50:00,70.6,45.1,29.65,SE,140,6.0,0.0,40,0.00,,,0.00,WeatherDisplay:10.37,2013-05-16 20:50:00,
2013-05-16 17:00:00,75.7,47.6,29.66,ESE,123,3.0,0.0,37,0.00,,,0.00,WeatherDisplay:10.37,2013-05-16 21:00:00,
2013-05-16 17:10:00,77.3,47.5,29.65,SE,131,2.0,0.0,35,0.00,,,0.00,WeatherDisplay:10.37,2013-05-16 21:10:00,
2013-05-16 17:20:00,78.4,45.3,29.66,SE,128,14.0,0.0,31,0.00,,,0.00,WeatherDisplay:10.37,2013-05-16 21:20:00,
2013-05-16 17:30:00,79.5,47.9,29.66,SE,137,5.0,0.0,33,0.00,,,0.00,WeatherDisplay:10.37,2013-05-16 21:30:00,
2013-05-16 17:40:00,76.6,46.9,29.66,SE,138,0.0,0.0,35,0.00,,,0.00,WeatherDisplay:10.37,2013-05-16 21:40:00,
2013-05-16 17:50:00,77.7,47.1,29.66,SE,138,6.0,0.0,34,0.00,,,0.00,WeatherDisplay:10.37,2013-05-16 21:50:00,
2013-05-16 17:59:00,74.1,43.1,29.66,SE,132,8.0,0.0,33,0.00,,,0.00,WeatherDisplay:10.37,2013-05-16 21:59:00,
2013-05-16 18:10:00,74.9,44.7,29.67,SE,130,5.0,0.0,34,0.00,,,0.00,WeatherDisplay:10.37,2013-05-16 22:10:00,
2013-05-16 18:20:00,73.9,43.8,29.67,SE,131,6.0,0.0,34,0.00,,,0.00,WeatherDisplay:10.37,2013-05-16 22:20:00,
2013-05-16 18:30:00,71.5,41.7,29.67,SE,135,2.0,0.0,34,0.00,,,0.00,WeatherDisplay:10.37,2013-05-16 22:30:00,
2013-05-16 18:40:00,70.0,41.8,29.67,SE,128,6.0,0.0,36,0.00,,,0.00,WeatherDisplay:10.37,2013-05-16 22:40:00,
2013-05-16 18:50:00,69.3,41.2,29.68,SE,133,2.0,0.0,36,0.00,,,0.00,WeatherDisplay:10.37,2013-05-16 22:50:00,
2013-05-16 18:59:00,68.5,41.2,29.68,SSE,148,3.0,0.0,37,0.00,,,0.00,WeatherDisplay:10.37,2013-05-16 22:59:00,
2013-05-16 19:10:00,68.0,40.7,29.69,SE,124,1.0,0.0,37,0.00,,,0.00,WeatherDisplay:10.37,2013-05-16 23:10:00,
2013-05-16 19:20:00,67.5,40.3,29.69,SE,145,5.0,0.0,37,0.00,,,0.00,WeatherDisplay:10.37,2013-05-16 23:20:00,
2013-05-16 19:30:00,66.6,40.2,29.69,ESE,117,0.0,0.0,38,0.00,,,0.00,WeatherDisplay:10.37,2013-05-16 23:30:00,
2013-05-16 19:40:00,66.2,40.5,29.70,SSE,152,1.0,0.0,39,0.00,,,0.00,WeatherDisplay:10.37,2013-05-16 23:40:00,
2013-05-16 19:50:00,65.8,41.5,29.70,SE,137,1.0,0.0,41,0.00,,,0.00,WeatherDisplay:10.37,2013-05-16 23:50:00,
2013-05-16 20:00:00,65.1,42.1,29.70,SSE,159,0.0,0.0,43,0.00,,,0.00,WeatherDisplay:10.37,2013-05-17 00:00:00,
2013-05-16 20:10:00,64.8,42.9,29.71,SE,134,2.0,0.0,45,0.00,,,0.00,WeatherDisplay:10.37,2013-05-17 00:10:00,
2013-05-16 20:20:00,64.0,43.4,29.73,SSE,156,0.0,0.0,47,0.00,,,0.00,WeatherDisplay:10.37,2013-05-17 00:20:00,
2013-05-16 20:30:00,63.1,43.7,29.73,SSE,150,0.0,0.0,49,0.00,,,0.00,WeatherDisplay:10.37,2013-05-17 00:30:00,
2013-05-16 20:40:00,62.1,42.2,29.73,SSE,150,0.0,0.0,48,0.00,,,0.00,WeatherDisplay:10.37,2013-05-17 00:40:00,
2013-05-16 20:50:00,60.8,41.0,29.74,SSE,149,0.0,0.0,48,0.00,,,0.00,WeatherDisplay:10.37,2013-05-17 00:50:00,
2013-05-16 20:59:00,59.9,40.7,29.74,SSE,150,0.0,0.0,49,0.00,,,0.00,WeatherDisplay:10.37,2013-05-17 00:59:00,
2013-05-16 21:10:00,59.2,38.9,29.76,SW,221,3.0,0.0,47,0.00,,,0.00,WeatherDisplay:10.37,2013-05-17 01:10:00,
2013-05-16 21:20:00,59.7,38.9,29.77,SSW,212,0.0,0.0,46,0.00,,,0.00,WeatherDisplay:10.37,2013-05-17 01:20:00,
2013-05-16 21:30:00,60.2,39.3,29.78,WSW,247,6.0,0.0,46,0.00,,,0.00,WeatherDisplay:10.37,2013-05-17 01:30:00,
2013-05-16 21:40:00,59.9,39.6,29.79,SW,234,5.0,0.0,47,0.00,,,0.00,WeatherDisplay:10.37,2013-05-17 01:40:00,
2013-05-16 21:50:00,59.3,40.1,29.81,SW,231,6.0,0.0,49,0.00,,,0.00,WeatherDisplay:10.37,2013-05-17 01:50:00,
2013-05-16 22:00:00,58.5,39.9,29.81,SW,233,0.0,0.0,50,0.00,,,0.00,WeatherDisplay:10.37,2013-05-17 02:00:00,
2013-05-16 22:10:00,57.6,40.1,29.81,WSW,237,0.0,0.0,52,0.00,,,0.00,WeatherDisplay:10.37,2013-05-17 02:10:00,
2013-05-16 22:20:00,56.8,39.9,29.81,WSW,247,1.0,0.0,53,0.00,,,0.00,WeatherDisplay:10.37,2013-05-17 02:20:00,
2013-05-16 22:30:00,56.3,39.9,29.82,WSW,240,2.0,0.0,54,0.00,,,0.00,WeatherDisplay:10.37,2013-05-17 02:30:00,
2013-05-16 22:40:00,55.6,39.7,29.82,SW,233,0.0,0.0,55,0.00,,,0.00,WeatherDisplay:10.37,2013-05-17 02:40:00,
2013-05-16 22:50:00,55.0,39.6,29.83,WSW,238,1.0,0.0,56,0.00,,,0.00,WeatherDisplay:10.37,2013-05-17 02:50:00,
2013-05-16 22:59:00,54.5,39.1,29.83,SW,233,0.0,0.0,56,0.00,,,0.00,WeatherDisplay:10.37,2013-05-17 02:59:00,
2013-05-16 23:10:00,54.1,39.2,29.83,WSW,239,8.0,0.0,57,0.00,,,0.00,WeatherDisplay:10.37,2013-05-17 03:10:00,
2013-05-16 23:20:00,54.0,39.1,29.83,SW,233,1.0,0.0,57,0.00,,,0.00,WeatherDisplay:10.37,2013-05-17 03:20:00,
2013-05-16 23:30:00,53.6,38.7,29.84,SW,224,1.0,0.0,57,0.00,,,0.00,WeatherDisplay:10.37,2013-05-17 03:30:00,
2013-05-16 23:40:00,53.2,38.8,29.84,SW,225,1.0,0.0,58,0.00,,,0.00,WeatherDisplay:10.37,2013-05-17 03:40:00,
2013-05-16 23:50:00,52.9,38.5,29.85,SW,225,0.0,0.0,58,0.00,,,0.00,WeatherDisplay:10.37,2013-05-17 03:50:00,